[[{"header":{"parameterUnit":"m.s-1","parameterCategory":1,"la1":30.2991,"la2":30.254,"lo1":-89.0895,"lo2":-89.0444,"dy":0.0017,"dx":0.0017,"nx":28,"ny":28,"refTime":"2025-07-28T21:00:00:Z","depth":0,"parameterNumber":2,"parameterNumberName":"U-component_of_WINDS"},"data":[0,0,0,0,0,0,0,0,0,0,0,0,0,0,0,0,0,0,0,0,0,0,0,0,0,0,0,0,0,0,0,0,0,0,0,0,0,0,0,0,0,0,0,0,0,0,0,0,0,0,0,0,0,0,0,0,0,0,-2.6422,-2.6424,0,-2.6638,-2.6641,-2.6643,-2.6704,-2.6703,-2.6702,-2.67,-2.6917,-2.6924,-2.6931,0,0,0,0,0,0,0,0,0,0,0,0,0,-2.6055,-2.6062,-2.6421,-2.6424,-2.6427,-2.6638,-2.6641,-2.6644,-2.6704,-2.6703,-2.6701,-2.67,-2.6915,-2.6923,-2.6931,0,0,0,0,0,0,0,0,0,0,0,0,0,-2.6237,-2.6064,-2.6421,-2.6483,-2.649,-2.6637,-2.6641,-2.6644,-2.6705,-2.6703,-2.6701,-2.6699,-2.6912,-2.6922,-2.6932,-2.7032,0,0,-2.6964,-2.6968,0,0,0,0,0,0,0,0,-2.6227,-2.6251,-2.6471,-2.6479,-2.6487,-2.6642,-2.6591,-2.6774,-2.6705,-2.6623,-2.67,-2.6698,-2.6827,-2.6844,-2.6888,-2.7042,-2.7051,-2.6965,-2.6971,-2.6975,-2.6978,0,0,0,0,0,0,0,-2.6214,-2.6242,-2.6507,-2.6474,-2.6484,-2.6498,-2.6522,-2.6626,-2.6732,-2.663,-2.6635,-2.666,-2.6831,-2.6878,-2.6894,-2.7054,-2.6964,-2.6974,-2.698,-2.6984,-2.73,-2.7302,0,0,0,0,0,0,-2.6192,-2.6231,-2.65,-2.6513,-2.635,-2.6506,-2.6533,-2.6594,-2.6731,-2.675,-2.6661,-2.6662,-2.6861,-2.6882,-2.6902,-2.7027,-2.6975,-2.6985,-2.6991,-2.7298,-2.7301,-2.7303,0,0,0,0,0,0,-2.6184,-2.6215,-2.6491,-2.6374,-2.641,-2.6514,-2.6583,-2.66,-2.6647,-2.6755,-2.6774,-2.6691,-2.6861,-2.6887,-2.6999,-2.7035,-2.699,-2.6999,-2.7296,-2.7299,-2.7302,-2.7278,0,0,0,0,0,0,-2.6173,-2.6212,-2.6252,-2.6374,-2.6416,-2.6586,-2.6585,-2.6605,-2.6665,-2.6668,-2.6787,-2.6805,-2.6862,-2.6984,-2.701,-2.7049,-2.7007,-2.7293,-2.7297,-2.7301,-2.7276,-2.728,-2.7284,0,0,0,0,0,-2.616,-2.6235,-2.6253,-2.6286,-2.6468,-2.6588,-2.6612,-2.6677,-2.6668,-2.6708,-2.6778,-2.6801,-2.7028,-2.6995,-2.7024,-2.7067,-2.7291,-2.7296,-2.7301,-2.7275,-2.728,-2.7284,0,0,0,0,0,0,-2.6112,-2.6252,-2.6274,-2.6392,-2.6478,-2.6599,-2.6651,-2.668,-2.6769,-2.6768,-2.6843,-2.687,-2.6976,-2.7033,-2.6994,-2.7171,-2.716,-2.7171,-2.7129,-2.7135,-2.7139,-2.7122,-2.7016,0,0,0,0,0,-2.6115,-2.6203,-2.632,-2.6413,-2.6455,-2.6546,-2.6601,-2.6643,-2.6735,-2.6771,-2.6849,-2.6935,-2.7026,-2.7084,-2.7173,-2.7285,-2.7312,-2.7329,-2.7333,-2.7336,-2.7344,-2.7407,-2.7416,-2.732,-2.732,-2.732,0,0,-2.6123,-2.621,-2.6261,-2.6406,-2.6477,-2.6565,-2.6576,-2.6668,-2.6733,-2.6785,-2.6896,-2.6956,-2.7057,-2.717,-2.7223,-2.722,-2.7377,-2.7342,-2.7343,-2.7351,-2.7413,-2.7422,-2.743,-2.7323,-2.7322,-2.7322,0,0,-2.6181,-2.6257,-2.6342,-2.6415,-2.6524,-2.6584,-2.6605,-2.6722,-2.6764,-2.6877,-2.6918,-2.6996,-2.715,-2.7221,-2.7277,-2.7364,-2.7389,-2.7391,-2.741,-2.7471,-2.7479,-2.7486,-2.7516,-2.7526,-2.7399,-2.7399,-2.7399,0,-2.6176,-2.6312,-2.6382,-2.6473,-2.6535,-2.6588,-2.6674,-2.674,-2.6872,-2.6913,-2.6909,-2.7105,-2.7177,-2.7307,-2.7328,-2.7372,-2.7397,-2.7377,-2.7472,-2.748,-2.7488,-2.7517,-2.7528,-2.7399,-2.7399,-2.7399,-2.7399,0,-2.6299,-2.6393,-2.6448,-2.6577,-2.6646,-2.6733,-2.6816,-2.6877,-2.6914,-2.6974,-2.7088,-2.7177,-2.7285,-2.7319,-2.7355,-2.7454,-2.7449,-2.7458,-2.7448,-2.7495,-2.7524,-2.7536,-2.7398,-2.7398,-2.7398,-2.7398,0,0,-2.6332,-2.65,-2.6519,-2.6578,-2.6704,-2.6777,-2.6867,-2.6975,-2.7025,-2.7115,-2.7191,-2.7322,-2.7331,-2.7394,-2.7439,-2.7493,-2.7555,-2.7495,-2.7498,-2.7502,-2.7669,-2.7661,-2.7673,-2.7573,-2.7576,-2.7578,-2.766,0,-2.6405,-2.6571,-2.6637,-2.677,-2.6857,-2.6909,-2.6987,-2.7072,-2.7131,-2.7211,-2.7276,-2.7367,-2.7372,-2.7411,-2.7467,-2.7536,-2.7589,-2.7531,-2.7644,-2.7647,-2.7615,-2.7688,-2.768,-2.7754,-2.7672,-2.7674,-2.7675,0,-2.6513,-2.6606,-2.6748,-2.6864,-2.6902,-2.6972,-2.7076,-2.7154,-2.725,-2.7289,-2.7361,-2.7404,-2.7499,-2.7484,-2.7616,-2.7574,-2.7625,-2.7666,-2.767,-2.7682,-2.7663,-2.7701,-2.7779,-2.7789,-2.7694,-2.7693,-2.7691,0,-2.6521,-2.6682,-2.6788,-2.6837,-2.6975,-2.7022,-2.7081,-2.7177,-2.7238,-2.7329,-2.7369,-2.7469,-2.7523,-2.7599,-2.7667,-2.765,-2.7792,-2.7783,-2.7826,-2.7824,-2.7852,-2.7849,-2.7937,-2.7886,-2.7886,-2.7886,-2.7885,0,-2.6595,-2.668,-2.6794,-2.6858,-2.6955,-2.703,-2.7123,-2.7186,-2.727,-2.7347,-2.7398,-2.7469,-2.7555,-2.7636,-2.769,-2.779,-2.7814,-2.7847,-2.786,-2.7843,-2.7838,-2.7875,-2.7871,-2.7889,-2.7888,-2.7887,-2.7887,0,-2.662,-2.67,-2.6819,-2.6941,-2.6973,-2.7039,-2.7142,-2.7206,-2.7268,-2.7365,-2.7392,-2.7488,-2.7587,-2.7663,-2.779,-2.7826,-2.7932,-2.7947,-2.79,-2.7907,-2.7945,-2.794,-2.8059,-2.8079,-2.8015,-2.8015,-2.8016,0,-2.6662,-2.6729,-2.6858,-2.6915,-2.6974,-2.7064,-2.7127,-2.7204,-2.7267,-2.7383,-2.7433,-2.7536,-2.7622,-2.7777,-2.7858,-2.7956,-2.7972,-2.8007,-2.7987,-2.7967,-2.7971,-2.7966,-2.7973,-2.8009,-2.8009,-2.801,-2.801,0,-2.6727,-2.6763,-2.6853,-2.6958,-2.7032,-2.7117,-2.7203,-2.7246,-2.7338,-2.7406,-2.7509,-2.7576,-2.7708,-2.7809,-2.7915,-2.7975,-2.8007,-2.8016,-2.8031,-2.8013,-2.7982,-2.7999,-2.7906,-2.8013,-2.8012,-2.8012,-2.8012,-2.8012,-2.6761,-2.6823,-2.6924,-2.7023,-2.7096,-2.7176,-2.7242,-2.7314,-2.7401,-2.7516,-2.7555,-2.7661,-2.7756,-2.7903,-2.7964,-2.8046,-2.8047,-2.8069,-2.8074,-2.8078,-2.8076,-2.7971,-2.8066,-2.8066,-2.8066,-2.8066,-2.8066,0,-2.6828,-2.6896,-2.6986,-2.7106,-2.7183,-2.721,-2.7307,-2.7369,-2.7462,-2.755,-2.7634,-2.7752,-2.7851,-2.7939,-2.8042,-2.8091,-2.8108,-2.8115,-2.8111,-2.8124,-2.807,-2.8046,-2.8099,-2.8099,-2.8099,-2.8099,-2.8099,-2.8099,-2.6871,-2.6978,-2.7026,-2.7169,-2.7237,-2.7342,-2.7395,-2.7468,-2.7538,-2.7668,-2.7751,-2.781,-2.7897,-2.8007,-2.8098,-2.8122,-2.8156,-2.8159,-2.8186,-2.8133,-2.8128,-2.8124,-2.8102,-2.8166,-2.8166,-2.8234,-2.8234,-2.8235]},{"header":{"parameterUnit":"m.s-1","parameterCategory":1,"la1":30.2991,"la2":30.254,"lo1":-89.0895,"lo2":-89.0444,"dy":0.0017,"dx":0.0017,"nx":28,"ny":28,"refTime":"2025-07-28T21:00:00:Z","depth":0,"parameterNumber":3,"parameterNumberName":"V-component_of_WINDS"},"data":[0,0,0,0,0,0,0,0,0,0,0,0,0,0,0,0,0,0,0,0,0,0,0,0,0,0,0,0,0,0,0,0,0,0,0,0,0,0,0,0,0,0,0,0,0,0,0,0,0,0,0,0,0,0,0,0,0,0,0.3856,0.3855,0,0.3754,0.3752,0.3751,0.3691,0.3691,0.369,0.369,0.3589,0.3587,0.3584,0,0,0,0,0,0,0,0,0,0,0,0,0,0.4005,0.4003,0.3856,0.3855,0.3854,0.3754,0.3752,0.3751,0.3691,0.3691,0.369,0.369,0.359,0.3587,0.3584,0,0,0,0,0,0,0,0,0,0,0,0,0,0.3926,0.4002,0.3857,0.3812,0.3807,0.3754,0.3752,0.3751,0.3691,0.3691,0.369,0.369,0.3591,0.3587,0.3584,0.3569,0,0,0.3573,0.3571,0,0,0,0,0,0,0,0,0.393,0.392,0.382,0.3815,0.3809,0.3735,0.3768,0.369,0.3691,0.3735,0.369,0.369,0.3638,0.3631,0.3612,0.3564,0.356,0.3572,0.357,0.3568,0.3567,0,0,0,0,0,0,0,0.3936,0.3924,0.3816,0.3818,0.3812,0.3798,0.3787,0.3753,0.369,0.3731,0.3727,0.3715,0.3635,0.3616,0.361,0.3558,0.3572,0.3569,0.3567,0.3565,0.3495,0.3495,0,0,0,0,0,0,0.3948,0.3929,0.3819,0.3813,0.387,0.3796,0.3783,0.3759,0.369,0.3679,0.3716,0.3713,0.3622,0.3614,0.3606,0.3584,0.3568,0.3565,0.3563,0.3494,0.3495,0.3495,0,0,0,0,0,0,0.3951,0.3939,0.3823,0.387,0.3854,0.3794,0.3768,0.3757,0.3738,0.3678,0.3667,0.3707,0.3622,0.3611,0.3579,0.358,0.3563,0.356,0.3494,0.3495,0.3495,0.3541,0,0,0,0,0,0,0.3956,0.394,0.3933,0.387,0.3852,0.3796,0.3768,0.3755,0.3731,0.3726,0.3668,0.3657,0.3621,0.3584,0.3575,0.3575,0.3557,0.3494,0.3494,0.3495,0.3539,0.3543,0.3547,0,0,0,0,0,0.3961,0.395,0.3932,0.392,0.3841,0.3796,0.3786,0.3743,0.3731,0.3724,0.3686,0.3659,0.3582,0.3582,0.357,0.3569,0.3493,0.3494,0.3495,0.3538,0.3542,0.3547,0,0,0,0,0,0,0.4016,0.3941,0.3921,0.3889,0.3849,0.3786,0.3775,0.3749,0.3713,0.371,0.3659,0.3647,0.362,0.3591,0.3593,0.3552,0.3535,0.3533,0.3571,0.3575,0.3579,0.3586,0.3554,0,0,0,0,0,0.4024,0.3993,0.393,0.3908,0.3889,0.3836,0.3815,0.3785,0.3743,0.3726,0.3686,0.3647,0.3614,0.3593,0.3559,0.3536,0.3522,0.3529,0.3533,0.3536,0.3535,0.3522,0.3524,0.3498,0.3498,0.3498,0,0,0.404,0.3996,0.3979,0.3918,0.3883,0.3854,0.3822,0.3792,0.377,0.3722,0.3688,0.3658,0.3612,0.3584,0.3569,0.3559,0.354,0.3537,0.354,0.3537,0.3523,0.3525,0.3528,0.3498,0.3498,0.3498,0,0,0.4055,0.4018,0.3996,0.3963,0.3911,0.3876,0.3871,0.3812,0.379,0.3756,0.3719,0.3694,0.3637,0.3606,0.3582,0.3588,0.3562,0.3579,0.3597,0.3585,0.3587,0.3588,0.3591,0.3592,0.3578,0.3578,0.3578,0,0.4082,0.4035,0.3988,0.396,0.3934,0.3889,0.3867,0.3838,0.3779,0.3763,0.3752,0.3681,0.3647,0.3611,0.3613,0.3596,0.3589,0.3584,0.359,0.3591,0.3592,0.3593,0.3594,0.3581,0.358,0.358,0.358,0,0.4071,0.4039,0.4028,0.397,0.3944,0.3919,0.3871,0.385,0.3823,0.379,0.3757,0.3714,0.3671,0.3661,0.3635,0.3622,0.3617,0.3599,0.3581,0.3598,0.3598,0.3598,0.3584,0.3583,0.3582,0.3582,0,0,0.4115,0.4034,0.403,0.4004,0.3945,0.392,0.3895,0.3852,0.3835,0.3797,0.3775,0.3729,0.3712,0.3686,0.3656,0.3645,0.3653,0.3628,0.3626,0.3634,0.3637,0.3651,0.3652,0.3636,0.3636,0.3636,0.3641,0,0.4121,0.4071,0.4029,0.3995,0.3965,0.3923,0.3901,0.3864,0.3833,0.3804,0.3771,0.3739,0.3719,0.3703,0.369,0.3655,0.3653,0.3654,0.3616,0.3615,0.3628,0.3652,0.3666,0.3673,0.3641,0.3641,0.3641,0,0.4121,0.4083,0.4046,0.399,0.3977,0.3957,0.3915,0.3888,0.3846,0.3824,0.3796,0.3765,0.3738,0.3723,0.3686,0.3688,0.367,0.3651,0.365,0.3644,0.3628,0.3647,0.3674,0.3676,0.3641,0.3641,0.3641,0,0.4157,0.4097,0.4067,0.4046,0.3981,0.3969,0.3941,0.3898,0.3876,0.384,0.3825,0.3787,0.3767,0.3739,0.37,0.3692,0.3667,0.3649,0.3649,0.365,0.3644,0.3645,0.3669,0.3635,0.3635,0.3635,0.3635,0,0.4167,0.4146,0.4082,0.4063,0.4039,0.3993,0.3971,0.394,0.3903,0.3879,0.3841,0.382,0.3769,0.3743,0.3712,0.3686,0.3678,0.366,0.3652,0.3663,0.3665,0.365,0.3649,0.3635,0.3635,0.3635,0.3635,0,0.4202,0.4159,0.4123,0.4065,0.405,0.4035,0.3986,0.3967,0.3935,0.3905,0.3896,0.3846,0.3812,0.3771,0.3725,0.3704,0.3682,0.367,0.3696,0.3691,0.3693,0.3694,0.3708,0.3708,0.3674,0.3675,0.3675,0,0.4211,0.4194,0.4134,0.4115,0.4088,0.4058,0.4035,0.399,0.3967,0.3918,0.3906,0.387,0.3838,0.3788,0.3748,0.3713,0.37,0.3707,0.3694,0.3706,0.37,0.3701,0.3699,0.371,0.3711,0.3712,0.3712,0,0.4232,0.4212,0.4179,0.4139,0.4112,0.4078,0.4044,0.4031,0.3979,0.3956,0.3921,0.3896,0.3849,0.3814,0.3774,0.3748,0.3722,0.3717,0.3715,0.3725,0.3741,0.3732,0.3704,0.3716,0.3716,0.3715,0.3715,0.3715,0.4254,0.4237,0.4193,0.4158,0.4127,0.4095,0.4075,0.404,0.401,0.3967,0.3943,0.3909,0.3869,0.3813,0.3788,0.3762,0.3752,0.375,0.3749,0.3749,0.3752,0.3746,0.3755,0.3755,0.3754,0.3754,0.3754,0,0.4273,0.4243,0.4211,0.4163,0.4136,0.4113,0.4074,0.4053,0.4023,0.3988,0.3958,0.3918,0.3885,0.3843,0.3807,0.3794,0.3782,0.3786,0.3787,0.3781,0.3763,0.3768,0.3797,0.3797,0.3797,0.3797,0.3797,0.3797,0.4279,0.4249,0.4224,0.4179,0.4149,0.4115,0.4094,0.4066,0.4037,0.3995,0.3966,0.3939,0.3901,0.3863,0.3831,0.382,0.3809,0.3817,0.3803,0.3786,0.3782,0.3779,0.3783,0.3815,0.3815,0.3823,0.3823,0.3823]}]]